[[{"header":{"parameterUnit":"m.s-1","parameterCategory":1,"la1":30.2991,"la2":30.254,"lo1":-89.0895,"lo2":-89.0444,"dx":0.0017,"dy":0.0017,"nx":28,"ny":28,"refTime":"2023-01-21T15:00:00:Z","depth":0,"parameterNumber":2,"parameterNumberName":"U-component_of_WINDS"},"data":[0,0,0,0,0,0,0,0,0,0,0,0,0,0,0,0,0,0,0,0,0,0,0,0,0,0,0,0,0,0,0,0,0,0,0,0,0,0,0,0,0,0,0,0,0,0,0,0,0,0,0,0,0,0,0,0,0,0,-6.3196,-6.3197,0,-6.3268,-6.3269,-6.327,-6.313,-6.3126,-6.3121,-6.3117,-6.3193,-6.32,-6.3206,0,0,0,0,0,0,0,0,0,0,0,0,0,-6.2941,-6.2946,-6.3196,-6.3197,-6.3198,-6.3268,-6.3269,-6.327,-6.3131,-6.3126,-6.312,-6.3115,-6.3191,-6.3199,-6.3206,0,0,0,0,0,0,0,0,0,0,0,0,0,-6.3037,-6.2948,-6.3196,-6.3137,-6.3132,-6.3268,-6.3269,-6.327,-6.3132,-6.3125,-6.3118,-6.3112,-6.3189,-6.3198,-6.3207,-6.3404,0,0,-6.3236,-6.3241,0,0,0,0,0,0,0,0,-6.3031,-6.3046,-6.3145,-6.3141,-6.3136,-6.3183,-6.3207,-6.3315,-6.3134,-6.3132,-6.3117,-6.3109,-6.3196,-6.3204,-6.3233,-6.3408,-6.3411,-6.3237,-6.3243,-6.3247,-6.325,0,0,0,0,0,0,0,-6.3025,-6.3042,-6.3224,-6.3146,-6.3141,-6.3108,-6.3114,-6.3227,-6.3202,-6.3132,-6.3122,-6.3132,-6.3192,-6.3224,-6.3234,-6.3412,-6.3237,-6.3245,-6.3251,-6.3255,-6.3753,-6.376,0,0,0,0,0,0,-6.3025,-6.3038,-6.3222,-6.3227,-6.3066,-6.3118,-6.3125,-6.3175,-6.32,-6.3198,-6.3138,-6.3126,-6.3211,-6.3223,-6.3236,-6.3467,-6.3247,-6.3256,-6.3261,-6.3746,-6.3755,-6.3763,0,0,0,0,0,0,-6.302,-6.3043,-6.3219,-6.313,-6.3149,-6.313,-6.3188,-6.318,-6.3212,-6.3205,-6.32,-6.3175,-6.3206,-6.3223,-6.3363,-6.3468,-6.326,-6.3269,-6.3737,-6.3748,-6.3759,-6.3932,0,0,0,0,0,0,-6.3014,-6.3042,-6.3116,-6.3132,-6.3155,-6.3345,-6.3194,-6.3187,-6.3228,-6.3213,-6.3239,-6.3236,-6.3202,-6.335,-6.3373,-6.3477,-6.3276,-6.3727,-6.3742,-6.3755,-6.3917,-6.3948,-6.3975,0,0,0,0,0,-6.3005,-6.3162,-6.312,-6.3143,-6.3246,-6.3351,-6.3364,-6.3321,-6.3237,-6.3312,-6.3308,-6.3235,-6.3454,-6.3366,-6.339,-6.3499,-6.372,-6.3738,-6.3754,-6.3904,-6.3942,-6.3974,0,0,0,0,0,0,-6.3158,-6.3163,-6.3116,-6.3284,-6.3318,-6.3327,-6.3419,-6.3362,-6.3422,-6.3405,-6.335,-6.3357,-6.3509,-6.3518,-6.342,-6.3691,-6.3573,-6.3596,-6.3679,-6.3714,-6.3743,-6.3736,-6.3284,0,0,0,0,0,-6.3212,-6.3296,-6.3296,-6.3443,-6.3463,-6.3439,-6.3483,-6.3447,-6.3481,-6.3495,-6.3501,-6.3537,-6.3614,-6.3665,-6.3735,-6.3919,-6.3922,-6.4006,-6.4035,-6.4059,-6.4078,-6.4176,-6.4213,-6.3819,-6.3818,-6.3818,0,0,-6.3323,-6.3336,-6.3392,-6.3475,-6.3497,-6.3586,-6.3452,-6.3552,-6.3617,-6.351,-6.3642,-6.3649,-6.3686,-6.3849,-6.3921,-6.3862,-6.4188,-6.4081,-6.4099,-6.4106,-6.4197,-6.4234,-6.4267,-6.383,-6.3828,-6.3826,0,0,-6.3569,-6.3588,-6.3712,-6.3738,-6.3774,-6.3757,-6.3788,-6.3807,-6.3806,-6.3939,-6.386,-6.3939,-6.4072,-6.4101,-6.4134,-6.4395,-6.4331,-6.442,-6.4569,-6.4665,-6.4696,-6.4723,-6.4815,-6.4848,-6.444,-6.4441,-6.4441,0,-6.3702,-6.3832,-6.3784,-6.3889,-6.3928,-6.3836,-6.3962,-6.399,-6.4047,-6.4076,-6.4009,-6.4175,-6.4194,-6.4362,-6.4426,-6.4456,-6.4489,-6.4415,-6.4695,-6.4722,-6.4747,-6.4833,-6.4868,-6.4451,-6.445,-6.4449,-6.4448,0,-6.3993,-6.4085,-6.4181,-6.4238,-6.4288,-6.4404,-6.4374,-6.4431,-6.4393,-6.4384,-6.452,-6.454,-6.4612,-6.4651,-6.4614,-6.4815,-6.4776,-6.4704,-6.4583,-6.4796,-6.4876,-6.4909,-6.4466,-6.4462,-6.4459,-6.4457,0,0,-6.4334,-6.4365,-6.4401,-6.4426,-6.446,-6.453,-6.4643,-6.4713,-6.4763,-6.4807,-6.4899,-6.5016,-6.4949,-6.4986,-6.4952,-6.5037,-6.5241,-6.4954,-6.4954,-6.5004,-6.5463,-6.5515,-6.5554,-6.5201,-6.5207,-6.5212,-6.5459,0,-6.4577,-6.4768,-6.4729,-6.4917,-6.5001,-6.4917,-6.5015,-6.5047,-6.5043,-6.5114,-6.511,-6.5193,-6.5099,-6.5121,-6.5201,-6.5199,-6.5332,-6.5182,-6.5285,-6.5289,-6.5275,-6.5596,-6.5651,-6.5883,-6.549,-6.5495,-6.5499,0,-6.4884,-6.4939,-6.5135,-6.5156,-6.519,-6.5278,-6.534,-6.541,-6.5446,-6.5437,-6.548,-6.5431,-6.5544,-6.5425,-6.5579,-6.5478,-6.5519,-6.5525,-6.5533,-6.5538,-6.5404,-6.5607,-6.5956,-6.599,-6.5549,-6.5545,-6.5541,0,-6.511,-6.5234,-6.5366,-6.5391,-6.542,-6.5484,-6.5499,-6.5528,-6.5574,-6.5629,-6.5658,-6.5727,-6.5763,-6.5818,-6.5789,-6.5706,-6.5949,-6.5828,-6.5944,-6.5945,-6.5995,-6.5992,-6.6353,-6.6028,-6.6028,-6.6027,-6.6026,0,-6.5382,-6.5505,-6.5468,-6.555,-6.5685,-6.5642,-6.5777,-6.5783,-6.581,-6.5892,-6.5826,-6.5904,-6.5863,-6.5939,-6.5918,-6.6048,-6.6066,-6.6062,-6.6054,-6.6066,-6.6066,-6.6089,-6.6071,-6.6036,-6.6034,-6.6032,-6.6031,0,-6.5656,-6.5636,-6.5775,-6.5792,-6.58,-6.5899,-6.5913,-6.599,-6.5982,-6.6087,-6.6109,-6.6097,-6.6183,-6.6161,-6.6255,-6.6241,-6.6405,-6.6379,-6.6392,-6.6384,-6.6501,-6.6489,-6.6886,-6.6935,-6.6583,-6.6586,-6.6589,0,-6.5829,-6.5921,-6.5948,-6.5998,-6.6018,-6.61,-6.6145,-6.6108,-6.6159,-6.6208,-6.6279,-6.636,-6.6421,-6.6563,-6.6563,-6.6635,-6.6608,-6.6743,-6.6618,-6.6627,-6.6607,-6.66,-6.6609,-6.6766,-6.677,-6.6773,-6.6776,0,-6.6137,-6.6124,-6.6192,-6.6258,-6.6315,-6.6365,-6.6409,-6.6455,-6.6421,-6.6482,-6.6568,-6.6617,-6.6713,-6.6793,-6.686,-6.6877,-6.6821,-6.6816,-6.6846,-6.6857,-6.686,-6.6857,-6.6456,-6.6806,-6.6803,-6.6801,-6.6799,-6.6798,-6.6363,-6.6441,-6.6473,-6.6552,-6.6582,-6.6625,-6.6698,-6.67,-6.6771,-6.6846,-6.6821,-6.692,-6.6956,-6.7039,-6.7065,-6.7143,-6.7092,-6.7136,-6.7147,-6.7158,-6.7171,-6.6851,-6.7156,-6.7155,-6.7154,-6.7153,-6.7153,0,-6.6666,-6.6683,-6.6756,-6.682,-6.6883,-6.6827,-6.6873,-6.6929,-6.7017,-6.7055,-6.7118,-6.7218,-6.7297,-6.7305,-6.7379,-6.744,-6.7416,-6.746,-6.7453,-6.7458,-6.7213,-6.7178,-6.7478,-6.7478,-6.7478,-6.7478,-6.7478,-6.7478,-6.683,-6.6959,-6.695,-6.7093,-6.711,-6.7206,-6.7237,-6.7277,-6.7307,-6.7422,-6.7487,-6.7492,-6.7518,-6.7594,-6.7664,-6.7664,-6.7694,-6.7747,-6.7738,-6.7508,-6.7475,-6.7444,-6.7411,-6.7755,-6.7755,-6.7975,-6.7977,-6.7979]},{"header":{"parameterUnit":"m.s-1","parameterCategory":1,"la1":30.2991,"la2":30.254,"lo1":-89.0895,"lo2":-89.0444,"dx":0.0017,"dy":0.0017,"nx":28,"ny":28,"refTime":"2023-01-21T15:00:00:Z","depth":0,"parameterNumber":3,"parameterNumberName":"V-component_of_WINDS"},"data":[0,0,0,0,0,0,0,0,0,0,0,0,0,0,0,0,0,0,0,0,0,0,0,0,0,0,0,0,0,0,0,0,0,0,0,0,0,0,0,0,0,0,0,0,0,0,0,0,0,0,0,0,0,0,0,0,0,0,-0.9691,-0.969,0,-0.9573,-0.9571,-0.957,-0.9546,-0.9547,-0.9548,-0.9549,-0.942,-0.9416,-0.9411,0,0,0,0,0,0,0,0,0,0,0,0,0,-0.9888,-0.9884,-0.9692,-0.969,-0.9689,-0.9573,-0.9571,-0.957,-0.9546,-0.9547,-0.9548,-0.955,-0.9421,-0.9416,-0.9411,0,0,0,0,0,0,0,0,0,0,0,0,0,-0.9789,-0.9883,-0.9692,-0.9663,-0.9659,-0.9573,-0.9571,-0.9569,-0.9546,-0.9547,-0.9549,-0.955,-0.9423,-0.9417,-0.941,-0.9342,0,0,-0.9391,-0.9388,0,0,0,0,0,0,0,0,-0.9795,-0.9782,-0.9669,-0.9665,-0.9661,-0.9576,-0.9593,-0.9493,-0.9546,-0.9589,-0.9549,-0.9551,-0.947,-0.946,-0.9434,-0.9336,-0.9331,-0.939,-0.9386,-0.9383,-0.9381,0,0,0,0,0,0,0,-0.9802,-0.9787,-0.9644,-0.9667,-0.9662,-0.9653,-0.964,-0.9574,-0.9523,-0.9585,-0.9583,-0.957,-0.9468,-0.9441,-0.9431,-0.9329,-0.939,-0.9384,-0.938,-0.9378,-0.9163,-0.9161,0,0,0,0,0,0,-0.9815,-0.9793,-0.9648,-0.9641,-0.9733,-0.9648,-0.9634,-0.9602,-0.9523,-0.9513,-0.9569,-0.9569,-0.9451,-0.9439,-0.9426,-0.9338,-0.9383,-0.9377,-0.9374,-0.9164,-0.9162,-0.916,0,0,0,0,0,0,-0.9819,-0.9802,-0.9653,-0.9716,-0.9696,-0.9643,-0.9607,-0.9598,-0.9571,-0.9511,-0.9501,-0.9551,-0.9452,-0.9436,-0.9363,-0.9333,-0.9374,-0.9368,-0.9167,-0.9164,-0.9161,-0.9163,0,0,0,0,0,0,-0.9825,-0.9804,-0.978,-0.9716,-0.9693,-0.9594,-0.9605,-0.9595,-0.9561,-0.956,-0.9492,-0.9481,-0.9451,-0.9372,-0.9356,-0.9325,-0.9363,-0.9169,-0.9165,-0.9162,-0.9165,-0.9161,-0.9157,0,0,0,0,0,-0.9832,-0.9785,-0.9779,-0.9762,-0.9663,-0.9593,-0.9579,-0.9548,-0.9559,-0.9532,-0.9493,-0.9484,-0.9339,-0.9365,-0.9347,-0.9313,-0.9171,-0.9166,-0.9162,-0.9167,-0.9162,-0.9157,0,0,0,0,0,0,-0.9846,-0.9776,-0.9769,-0.97,-0.9653,-0.9589,-0.9555,-0.9544,-0.9491,-0.9492,-0.9453,-0.9437,-0.9366,-0.9332,-0.9362,-0.924,-0.9255,-0.9247,-0.9265,-0.9259,-0.9255,-0.9264,-0.9358,0,0,0,0,0,-0.9841,-0.9793,-0.9733,-0.9678,-0.9655,-0.9609,-0.9577,-0.9557,-0.9505,-0.9484,-0.944,-0.9388,-0.933,-0.9293,-0.9237,-0.916,-0.9142,-0.9128,-0.9123,-0.912,-0.9113,-0.9065,-0.9057,-0.9147,-0.9147,-0.9147,0,0,-0.983,-0.9786,-0.9758,-0.968,-0.9641,-0.9588,-0.9592,-0.9537,-0.9496,-0.9475,-0.9404,-0.9369,-0.9307,-0.9231,-0.9195,-0.9201,-0.9084,-0.9115,-0.9113,-0.9107,-0.906,-0.9051,-0.9044,-0.9144,-0.9144,-0.9145,0,0,-0.9783,-0.9747,-0.9695,-0.9656,-0.9596,-0.9566,-0.9553,-0.949,-0.9466,-0.9394,-0.9376,-0.9325,-0.9228,-0.9183,-0.9148,-0.908,-0.9067,-0.9063,-0.904,-0.8993,-0.8986,-0.898,-0.8952,-0.8942,-0.9056,-0.9056,-0.9056,0,-0.9777,-0.97,-0.9669,-0.9614,-0.9578,-0.9558,-0.9502,-0.9465,-0.9389,-0.9363,-0.9371,-0.9246,-0.9203,-0.9114,-0.9097,-0.9071,-0.9051,-0.907,-0.899,-0.8983,-0.8977,-0.8949,-0.8939,-0.9056,-0.9056,-0.9056,-0.9056,0,-0.9692,-0.9639,-0.9603,-0.9532,-0.9492,-0.9438,-0.9395,-0.9358,-0.934,-0.9307,-0.923,-0.9178,-0.9109,-0.9087,-0.9069,-0.8993,-0.8998,-0.8999,-0.9012,-0.8968,-0.8942,-0.8931,-0.9055,-0.9055,-0.9055,-0.9055,0,0,-0.9652,-0.9564,-0.9551,-0.9516,-0.9448,-0.9404,-0.9345,-0.928,-0.9247,-0.9194,-0.9141,-0.9058,-0.9057,-0.9017,-0.8993,-0.8952,-0.8896,-0.8957,-0.8955,-0.8945,-0.8805,-0.8804,-0.8792,-0.8888,-0.8886,-0.8885,-0.8809,0,-0.9595,-0.9494,-0.9463,-0.9377,-0.9324,-0.9301,-0.925,-0.92,-0.9167,-0.9114,-0.9076,-0.9016,-0.9021,-0.8996,-0.8955,-0.8912,-0.8867,-0.8917,-0.8835,-0.8832,-0.8849,-0.8779,-0.8778,-0.871,-0.8799,-0.8797,-0.8796,0,-0.9516,-0.9463,-0.9371,-0.9306,-0.9282,-0.9237,-0.9172,-0.9123,-0.9064,-0.9042,-0.8996,-0.8974,-0.8908,-0.8926,-0.8831,-0.8866,-0.883,-0.8803,-0.8799,-0.8789,-0.881,-0.8764,-0.8688,-0.8676,-0.878,-0.8781,-0.8782,0,-0.9491,-0.9397,-0.9329,-0.9301,-0.9224,-0.9191,-0.9157,-0.91,-0.9061,-0.9002,-0.8976,-0.891,-0.8873,-0.8821,-0.878,-0.8798,-0.8687,-0.8703,-0.8664,-0.8664,-0.864,-0.8642,-0.8555,-0.8621,-0.8621,-0.8622,-0.8622,0,-0.943,-0.9374,-0.9317,-0.9275,-0.921,-0.9173,-0.9108,-0.9072,-0.902,-0.8967,-0.8944,-0.8894,-0.8845,-0.8787,-0.8755,-0.8679,-0.8663,-0.864,-0.8632,-0.8641,-0.8643,-0.8615,-0.8618,-0.8619,-0.8619,-0.862,-0.862,0,-0.9392,-0.9352,-0.9276,-0.9209,-0.919,-0.9144,-0.9085,-0.904,-0.9006,-0.8939,-0.8921,-0.8864,-0.8795,-0.875,-0.8661,-0.8639,-0.8554,-0.8549,-0.8575,-0.8571,-0.8532,-0.8535,-0.8422,-0.8403,-0.8485,-0.8484,-0.8484,0,-0.9354,-0.9311,-0.9238,-0.9202,-0.9168,-0.9111,-0.907,-0.903,-0.8989,-0.8916,-0.8879,-0.8809,-0.875,-0.8639,-0.8588,-0.8518,-0.8509,-0.8474,-0.8498,-0.8507,-0.8504,-0.8506,-0.85,-0.8469,-0.8469,-0.8468,-0.8468,0,-0.929,-0.9272,-0.9217,-0.9153,-0.9106,-0.9053,-0.9001,-0.8971,-0.8921,-0.8875,-0.8805,-0.8759,-0.8668,-0.8596,-0.8522,-0.8482,-0.8464,-0.8461,-0.8447,-0.8455,-0.8471,-0.8458,-0.8561,-0.8463,-0.8464,-0.8464,-0.8464,-0.8464,-0.9249,-0.9208,-0.9149,-0.9087,-0.9043,-0.8993,-0.8947,-0.8906,-0.8848,-0.8772,-0.8751,-0.8676,-0.8612,-0.8511,-0.8469,-0.8407,-0.8411,-0.8392,-0.8387,-0.8382,-0.838,-0.8483,-0.8394,-0.8394,-0.8394,-0.8394,-0.8394,0,-0.9181,-0.9142,-0.9085,-0.9012,-0.8961,-0.8952,-0.8892,-0.8849,-0.8785,-0.8728,-0.8671,-0.8587,-0.8516,-0.8459,-0.8385,-0.8346,-0.8335,-0.8327,-0.8328,-0.8319,-0.8383,-0.8401,-0.8337,-0.8337,-0.8337,-0.8337,-0.8337,-0.8337,-0.914,-0.9068,-0.9042,-0.8946,-0.8906,-0.8835,-0.88,-0.8752,-0.8707,-0.8615,-0.8557,-0.8521,-0.8462,-0.8383,-0.8316,-0.83,-0.8273,-0.8266,-0.8248,-0.8308,-0.8315,-0.8321,-0.8337,-0.8261,-0.8261,-0.8188,-0.8187,-0.8187]}]]